Time,TemperatureF,DewpointF,PressureIn,WindDirection,WindDirectionDegrees,WindSpeedMPH,WindSpeedGustMPH,Humidity,HourlyPrecipIn,Conditions,Clouds,dailyrainin,SoftwareType,DateUTC
2014-08-29 00:14:00,65.9,62.0,30.04,ESE,114,2.0,6.0,86,0.00,,,0.00,weatherlink.com 1.10,2014-08-29 04:14:00,
2014-08-29 00:29:00,65.7,62.0,30.04,ESE,121,1.0,5.0,86,0.00,,,0.00,weatherlink.com 1.10,2014-08-29 04:29:00,
2014-08-29 00:44:00,65.4,61.0,30.04,SE,137,0.0,6.0,86,0.00,,,0.00,weatherlink.com 1.10,2014-08-29 04:44:00,
2014-08-29 00:59:00,65.2,61.0,30.04,ESE,113,0.0,5.0,86,0.00,,,0.00,weatherlink.com 1.10,2014-08-29 04:59:00,
2014-08-29 01:14:00,65.0,61.0,30.04,ESE,121,1.0,5.0,86,0.00,,,0.00,weatherlink.com 1.10,2014-08-29 05:14:00,
2014-08-29 01:29:00,64.8,61.0,30.04,East,84,0.0,5.0,86,0.00,,,0.00,weatherlink.com 1.10,2014-08-29 05:29:00,
2014-08-29 01:44:00,64.6,60.0,30.04,ESE,123,1.0,3.0,86,0.00,,,0.00,weatherlink.com 1.10,2014-08-29 05:44:00,
2014-08-29 01:59:00,64.5,60.0,30.04,SE,143,0.0,5.0,86,0.00,,,0.00,weatherlink.com 1.10,2014-08-29 05:59:00,
2014-08-29 02:14:00,64.3,60.0,30.03,East,94,2.0,4.0,87,0.00,,,0.00,weatherlink.com 1.10,2014-08-29 06:14:00,
2014-08-29 02:29:00,64.1,60.0,30.03,ENE,76,2.0,3.0,87,0.00,,,0.00,weatherlink.com 1.10,2014-08-29 06:29:00,
2014-08-29 02:44:00,63.9,60.0,30.03,SE,131,2.0,5.0,87,0.00,,,0.00,weatherlink.com 1.10,2014-08-29 06:44:00,
2014-08-29 02:59:00,63.8,60.0,30.02,ESE,113,2.0,5.0,86,0.00,,,0.00,weatherlink.com 1.10,2014-08-29 06:59:00,
2014-08-29 03:14:00,64.0,60.0,30.02,East,94,5.0,6.0,85,0.00,,,0.00,weatherlink.com 1.10,2014-08-29 07:14:00,
2014-08-29 03:29:00,63.4,60.0,30.02,East,96,2.0,7.0,87,0.00,,,0.00,weatherlink.com 1.10,2014-08-29 07:29:00,
2014-08-29 03:44:00,62.8,59.0,30.02,East,92,5.0,7.0,88,0.00,,,0.00,weatherlink.com 1.10,2014-08-29 07:44:00,
2014-08-29 03:59:00,62.5,59.0,30.02,East,94,2.0,6.0,89,0.00,,,0.00,weatherlink.com 1.10,2014-08-29 07:59:00,
2014-08-29 04:14:00,62.2,59.0,30.02,East,85,3.0,7.0,89,0.00,,,0.00,weatherlink.com 1.10,2014-08-29 08:14:00,
2014-08-29 04:29:00,62.0,59.0,30.02,ESE,115,2.0,6.0,90,0.00,,,0.00,weatherlink.com 1.10,2014-08-29 08:29:00,
2014-08-29 04:44:00,61.8,59.0,30.02,SE,145,1.0,7.0,90,0.00,,,0.00,weatherlink.com 1.10,2014-08-29 08:44:00,
2014-08-29 04:59:00,61.6,58.0,30.02,ESE,112,4.0,5.0,89,0.00,,,0.00,weatherlink.com 1.10,2014-08-29 08:59:00,
2014-08-29 05:14:00,61.3,58.0,30.03,ENE,74,2.0,5.0,89,0.00,,,0.00,weatherlink.com 1.10,2014-08-29 09:14:00,
2014-08-29 05:29:00,61.1,58.0,30.03,SE,124,4.0,5.0,90,0.00,,,0.00,weatherlink.com 1.10,2014-08-29 09:29:00,
2014-08-29 05:44:00,61.1,58.0,30.03,SSE,148,2.0,8.0,89,0.00,,,0.00,weatherlink.com 1.10,2014-08-29 09:44:00,
2014-08-29 05:59:00,61.1,58.0,30.03,ESE,107,1.0,7.0,89,0.00,,,0.00,weatherlink.com 1.10,2014-08-29 09:59:00,